Bennington, VT

3:08 PM EDT on May 29, 2017 (GMT -0400)
Morse State

Weather History for KDDH - August, 2013

Change the Weather History Date:

Saturday, August 10, 2013

  Actual Average Record
Temperature  
Mean Temperature 63 °F 67 °F  
Max Temperature 76 °F 79 °F 88 °F (2005)
Min Temperature 50 °F 56 °F 44 °F (1999)
Degree Days  
Heating Degree Days 2 1  
Month to date heating degree days 15 10  
Since 1 June heating degree days 125 131  
Since 1 July heating degree days 25 34  
Cooling Degree Days 0 4  
Month to date cooling degree days 30 40  
Year to date cooling degree days 408 235  
Since 1 June cooling degree days 376 221  
Growing Degree Days 14 (Base 50)    
Moisture  
Dew Point 57 °F    
Average Humidity 69    
Maximum Humidity 97    
Minimum Humidity 41    
Precipitation  
Precipitation 0.00 in 0.14 in 1.08 in (2016)
Month to date precipitation 0.72 1.45  
Year to date precipitation 28.08 24.99  
Sea Level Pressure  
Sea Level Pressure 29.95 in    
Wind  
Wind Speed 6 mph (WSW)    
Max Wind Speed 17 mph    
Max Gust Speed 30 mph    
Visibility 10 miles    
Events      
T = Trace of Precipitation, MM = Missing Value Source: NWS Daily Summary

Daily Weather History Graph

Daily Weather History Graph

Search for Another Location

Airport or City:

Trip Planner

Search our weather history database for the weather conditions in past years. The results will help you decide how hot, cold, wet, or windy it might be!

Date:

Astronomy

Aug. 10, 2013 Rise Set
Actual Time 5:53 AM EDT 8:01 PM EDT
Civil Twilight 5:22 AM EDT 8:32 PM EDT
Nautical Twilight 4:44 AM EDT 9:11 PM EDT
Astronomical Twilight 4:02 AM EDT 9:52 PM EDT
Moon 9:44 AM EDT (8/10) 9:34 PM EDT (8/10)
Length of Visible Light 15h 10m
Length of Day
14h 08m
Waxing Crescent, 14% of the Moon is Illuminated
Aug 10
Waxing Crescent
Aug 14
First Quarter
Aug 20
Full
Aug 28
Last Quarter
Sep 5
New

Hourly Weather History & Observations

Time (EDT) Temp. Dew Point Humidity Pressure Visibility Wind Dir Wind Speed Gust Speed Precip Events Conditions
12:23 AM 69.8 °F 66.2 °F 88% 29.87 in 10.0 mi SW 8.1 mph - N/A   Mostly Cloudy
12:39 AM 69.8 °F 66.2 °F 88% 29.87 in 10.0 mi SW 8.1 mph - N/A   Mostly Cloudy
12:54 AM 69.1 °F 64.9 °F 87% 29.86 in 10.0 mi SW 5.8 mph - N/A   Scattered Clouds
1:54 AM 66.9 °F 63.0 °F 87% 29.88 in 10.0 mi SSW 6.9 mph - N/A   Clear
2:54 AM 66.0 °F 61.0 °F 84% 29.89 in 10.0 mi Variable 4.6 mph - N/A   Clear
3:54 AM 64.9 °F 60.1 °F 84% 29.91 in 10.0 mi Calm Calm - N/A   Clear
4:54 AM 60.1 °F 59.0 °F 96% 29.91 in 7.0 mi Calm Calm - N/A   Clear
5:54 AM 60.1 °F 57.9 °F 93% 29.92 in 4.0 mi Calm Calm - N/A   Partly Cloudy
6:47 AM 62.6 °F 60.8 °F 94% 29.95 in 9.0 mi SW 4.6 mph - N/A   Mostly Cloudy
6:54 AM 64.0 °F 60.1 °F 87% 29.94 in 10.0 mi SW 3.5 mph - N/A   Mostly Cloudy
7:24 AM 64.4 °F 60.8 °F 88% 29.95 in 10.0 mi Variable 5.8 mph - N/A   Scattered Clouds
7:54 AM 64.9 °F 61.0 °F 87% 29.94 in 10.0 mi WSW 4.6 mph - N/A   Clear
8:17 AM 66.2 °F 60.8 °F 83% 29.96 in 10.0 mi WSW 4.6 mph - N/A   Mostly Cloudy
8:54 AM 66.9 °F 61.0 °F 81% 29.94 in 10.0 mi WSW 6.9 mph - N/A   Mostly Cloudy
9:19 AM 69.8 °F 60.8 °F 73% 29.95 in 10.0 mi Variable 4.6 mph - N/A   Mostly Cloudy
9:37 AM 69.8 °F 62.6 °F 78% 29.95 in 10.0 mi Variable 6.9 mph - N/A   Scattered Clouds
9:54 AM 70.0 °F 61.0 °F 73% 29.95 in 10.0 mi Variable 6.9 mph - N/A   Scattered Clouds
10:54 AM 73.0 °F 59.0 °F 61% 29.94 in 10.0 mi West 8.1 mph - N/A   Clear
11:54 AM 73.9 °F 55.9 °F 53% 29.95 in 10.0 mi West 9.2 mph 23.0 mph N/A   Partly Cloudy
12:54 PM 73.0 °F 55.0 °F 53% 29.95 in 10.0 mi West 15.0 mph 21.9 mph N/A   Mostly Cloudy
1:54 PM 75.0 °F 54.0 °F 48% 29.96 in 10.0 mi West 9.2 mph 16.1 mph N/A   Partly Cloudy
2:54 PM 73.9 °F 52.0 °F 46% 29.96 in 10.0 mi WSW 12.7 mph 20.7 mph N/A   Scattered Clouds
3:54 PM 75.0 °F 51.1 °F 43% 29.96 in 10.0 mi West 11.5 mph 17.3 mph N/A   Partly Cloudy
4:54 PM 73.9 °F 51.1 °F 45% 29.97 in 10.0 mi West 5.8 mph 17.3 mph N/A   Clear
5:54 PM 72.0 °F 46.9 °F 41% 29.98 in 10.0 mi WSW 8.1 mph 18.4 mph N/A   Clear
6:54 PM 70.0 °F 48.0 °F 46% 29.99 in 10.0 mi West 9.2 mph - N/A   Clear
7:54 PM 66.9 °F 48.0 °F 51% 30.01 in 10.0 mi WSW 6.9 mph - N/A   Clear
8:54 PM 64.9 °F 46.9 °F 52% 30.03 in 10.0 mi SW 5.8 mph - N/A   Clear
9:54 PM 57.9 °F 48.9 °F 72% 30.06 in 10.0 mi Calm Calm - N/A   Clear
10:54 PM 54.0 °F 48.9 °F 83% 30.06 in 10.0 mi South 3.5 mph - N/A   Clear
11:54 PM 52.0 °F 48.9 °F 89% 30.07 in 10.0 mi Calm Calm - N/A   Clear